Location: ???????
(55.4362°N, 38.1183°E)
Time: 16:19:10
(UTC+00:00)

Cosmos 2333 Rocket - Pass Details

Date: 24 October 2021
Orbit: 837 x 865 km, 70.8° (Epoch: 04 December)

Event Time Altitude Azimuth Distance (km) Brightness Sun altitude
Rises 16:41:00 0° 186° (S) 3,390 5.3 -22.5°
Reaches altitude 10° 16:43:33 10° 179° (S) 2,463 4.5 -22.8°
Enters shadow 16:45:23 20° 169° (S) 1,852 3.7 -23.1°
